Preview of NWS' New Version of Forecast
This preview is not operational and should not be used for support decisions.

Regional Weather Roundup (RWR)

Issued by National Weather Service (NWS)

                            
000
ASUS43 KMKX 211611
RWRWI 

WISCONSIN REGIONAL WEATHER ROUNDUP
NATIONAL WEATHER SERVICE MILWAUKEE/SULLIVAN WI
1100 AM CDT SAT SEP 21 2019

NOTE: "FAIR" INDICATES FEW OR NO CLOUDS BELOW 12,000 FEET WITH NO
SIGNIFICANT WEATHER AND/OR OBSTRUCTIONS TO VISIBILITY.

WIZ001-002-006>008-014>016-023>028-211700-
NORTHWEST WISCONSIN
  
CITY           SKY/WX    TMP DP  RH WIND       PRES   REMARKS
SUPERIOR ARPT  DRIZZLE   57  57 100 CALM      29.79S                  
ASHLAND        PTSUNNY   75  67  76 S12G22    29.81F                  
HAYWARD        LGT RAIN  71  68  90 S14       29.84S FOG              
SIREN          CLOUDY    70  69  96 MISG      29.83                   
CUMBERLAND     CLOUDY    70  68  94 S12G17    29.85R                  
RICE LAKE      CLOUDY    71  55  57 S10G17    29.86S                  
CHETEK         CLOUDY    71  70  97 S12       29.86S                  
LADYSMITH      CLOUDY    72  70  92 S10G17    29.89S                  
EAU CLAIRE     CLOUDY    75  67  76 SW12      29.87R                  
MENOMONIE      PTSUNNY   72  67  86 SE15      29.85F                  
NEW RICHMOND   CLOUDY    74  66  78 S13G23    29.83R                  
OSCEOLA        CLOUDY    73  71  92 S14       29.84S                  
$$
 
WIZ003>005-009-010-017-018-211700-
NORTH CENTRAL WISCONSIN
  
CITY           SKY/WX    TMP DP  RH WIND       PRES   REMARKS
MANITOWISH WTR CLOUDY    71  70  99 S10       29.90R                  
ARBOR VITAE    CLOUDY    72  68  87 S9G17     29.91R                  
WOODRUFF       CLOUDY    72  68  87 S9G17     29.91R                  
RHINELANDER    CLOUDY    71  65  81 S9G20     29.93F                  
EAGLE RIVER    CLOUDY    72  66  80 S8G17     29.92S                  
LAND O LAKES   NOT AVBL                                               
PHILLIPS       CLOUDY    72  69  90 S12G23    29.89S                  
TOMAHAWK       CLOUDY    70  66  86 S5        29.92F                  
MEDFORD        CLOUDY    70  67  91 S14       29.91F                  
MERRILL        CLOUDY    71  69  94 S10G17    29.94F                  
$$
 
WIZ029-030-035-036-043>047-211700-
CENTRAL WISCONSIN
  
CITY           SKY/WX    TMP DP  RH WIND       PRES   REMARKS
WAUSAU         CLOUDY    71  68  90 S14G20    29.93S                  
MOSINEE        CLOUDY    72  66  83 S16       29.96S                  
MARSHFIELD     CLOUDY    71  68  90 S14G23    29.93F FOG              
STEVENS POINT  CLOUDY    71  68  90 S15G22    29.96S                  
WAUPACA        CLOUDY    76  70  81 S12       29.97S                  
WAUTOMA        CLOUDY    73  69  87 S13       29.97                   
WISC RAPIDS    CLOUDY    74  68  81 S14G22    29.95F                  
CAMP DOUGLAS   LGT RAIN  72  72 100 S7        29.95F                  
$$
 
WIZ011>013-019>022-031-037>040-048>050-211700-
NORTHEAST WISCONSIN
  
CITY           SKY/WX    TMP DP  RH WIND       PRES   REMARKS
ANTIGO         CLOUDY    68  67  98 S10       29.97F FOG              
SHAWANO        CLOUDY    76  69  79 S8        29.96F                  
OCONTO         FAIR      76  69  79 S6        29.96F                  
STURGEON BAY   FAIR      73  68  84 S14G20    29.99S                  
GREEN BAY      PTSUNNY   77  69  76 S15G23    29.98S                  
MANITOWOC      FAIR      75  68  78 S9        30.00F                  
APPLETON       PTSUNNY   73  64  73 S17       29.97F                  
CLINTONVILLE   CLOUDY    73  67  79 S12       29.96F                  
OSHKOSH        PTSUNNY   74  68  81 S14G24    29.99S                  
$$
 
WIZ032>034-041-042-053>061-211700-
SOUTHWEST WISCONSIN
  
CITY           SKY/WX    TMP DP  RH WIND       PRES   REMARKS
LA CROSSE      CLOUDY    75  70  83 S12       29.89F                  
SPARTA         CLOUDY    69  66  89 S12       29.93F                  
VIROQUA        CLOUDY    70  70 100 S7        29.95F                  
BOSCOBEL       CLOUDY    75  69  81 S9        29.95F                  
PRAIRIE DU CHI CLOUDY    73  68  84 S6G17     29.95R                  
PLATTEVILLE    CLOUDY    71  71 100 S15G21    30.01R                  
$$

WIZ056-057-062-063-064-067-068-211700-
SOUTH CENTRAL WISCONSIN
  
CITY           SKY/WX    TMP DP  RH WIND       PRES   REMARKS
REEDSBURG      CLOUDY    72  71  97 S9G17     29.97S                  
BARABOO/DELLS  CLOUDY    71  67  86 SW13G23   29.98S                  
LONE ROCK      CLOUDY    75  69  81 S16       29.96F                  
MINERAL POINT  CLOUDY    72  72 100 S12       30.00F                  
MADISON        CLOUDY    75  68  78 SW8G21    29.99F                  
MIDDLETON      CLOUDY    75  67  76 S10G22    30.00F                  
WATERTOWN      CLOUDY    74  73  96 S16       30.01F                  
MONROE         RAIN      71  69  95 S16       30.02F                  
JANESVILLE     CLOUDY    75  73  94 S12G17    30.03F                  
$$
 
WIZ051-052-058>065-066-070>072-211700-
SOUTHEAST WISCONSIN
  
CITY           SKY/WX    TMP DP  RH WIND       PRES   REMARKS
MILWAUKEE      PTSUNNY   79  68  69 SW21G30   30.03F HX  81           
WAUKESHA       CLOUDY    73  66  78 S10       30.05S                  
MILWAUKEE/TIMM CLOUDY    77  64  65 SW14G24   30.04F                  
RACINE         FAIR      77  68  73 SW15G25   30.05F                  
KENOSHA        FAIR      78  70  76 SW16G32   30.05F HX  80           
FOND DU LAC    CLOUDY    75  68  78 S12G20    30.00S                  
SHEBOYGAN      CLOUDY    78  69  73 S20       30.01R HX  80           
WEST BEND      CLOUDY    73  70  88 SW15G21   30.02F                  
JUNEAU         CLOUDY    73  69  88 S8        30.02F                  
$$

LSZ147-162-211700-
LAKE SUPERIOR
  
STATION/POSITION TIME  TEMP    WIND        PRES    WAVE
                       AIR SEA DIR/SP/G            HT/PER
                 (UTC) (F)     (DEG/KT/KT) (MB)    (FT/S)
W MID LAKE BUOY  1550   62 55  170/ 14/ 14 1008.8F   1/ 3
DEVILS ISLAND    1500   69     170/ 11/ 15 1008.8F
SAXON HARBOR     1540   76     180/  6/ 17 1008.8F
$$
 
LMZ867-665-643>646-211700-
LAKE MICHIGAN
  
STATION/POSITION TIME  TEMP    WIND        PRES    WAVE
                       AIR SEA DIR/SP/G            HT/PER
                 (UTC) (F)     (DEG/KT/KT) (MB)    (FT/S)
CHAMBERS ISLAND  1540   75     120/  6/ 13   N/A
N MID LAKE BUOY  1550   67 64  150/ 12/ 14 1016.0F   1/ 3
NORTHPORT PIER   1540   69     130/  9/ 14 1015.2F
KEWAUNEE LAKESHO 1524   64     190/ 10/ 11 1015.3
SHEBOYGAN LAKESH 1600   65     180/ 19/ 20 1016.3R
PORT WASHINGTON  1540   68     200/  6/  8 1017.6S
ATWATER BUOY     1530   73 60  180/ 14/ 19 1017.3F   2/19
MILWAUKEE LAKESH 1550   77     210/ 13/ 17   N/A
S MID LAKE BUOY  1550   71 69  180/ 17/ 19 1018.5F   2/ 4
KENOSHA   LAKESH 1600   76     210/ 15/ 23 1017.3
$$

TC  - TEMPERATURE IN CELSIUS
VSB - VISIBILITY IN STATUTE MILES
WCI - WIND CHILL INDEX
HX  - HEAT INDEX